| time (UTC) | temp F | wind direction | speed MPH | gust MPH | rain 1hr in | rain 24hr in | rain mn in | humidity % | barometer mb |
| 20260505124406 | 40 | 102 | 7.0 | 8.0 | 0.00 | 0.00 | 0.00 | 90 | 1009.8 |
| 20260505123902 | 40 | 135 | 4.0 | 9.0 | 0.00 | 0.00 | 0.00 | 90 | 1010.0 |
| 20260505123359 | 40 | 135 | 3.0 | 7.0 | 0.00 | 0.00 | 0.00 | 90 | 1009.8 |
| 20260505122855 | 40 | 124 | 4.0 | 7.0 | 0.00 | 0.00 | 0.00 | 89 | 1009.8 |
| 20260505122352 | 40 | 76 | 7.0 | 8.0 | 0.00 | 0.00 | 0.00 | 89 | 1009.7 |
| 20260505121849 | 40 | 106 | 4.0 | 5.0 | 0.00 | 0.00 | 0.00 | 88 | 1009.4 |
| 20260505121346 | 40 | 137 | 3.0 | 6.0 | 0.00 | 0.00 | 0.00 | 88 | 1009.5 |
| 20260505120842 | 41 | 72 | 3.0 | 5.0 | 0.00 | 0.00 | 0.00 | 87 | 1009.5 |
| 20260505120338 | 40 | 81 | 0.0 | 4.0 | 0.00 | 0.00 | 0.00 | 87 | 1009.4 |
| 20260505115837 | 40 | 283 | 0.0 | 5.0 | 0.00 | 0.00 | 0.00 | 87 | 1009.4 |
| 20260505115334 | 41 | 87 | 2.0 | 7.0 | 0.00 | 0.00 | 0.00 | 86 | 1009.5 |
| 20260505114832 | 41 | 146 | 4.0 | 6.0 | 0.00 | 0.00 | 0.00 | 86 | 1009.1 |
| 20260505114328 | 41 | 117 | 2.0 | 5.0 | 0.00 | 0.00 | 0.00 | 86 | 1009.2 |
| 20260505113825 | 41 | 165 | 2.0 | 6.0 | 0.00 | 0.00 | 0.00 | 85 | 1009.1 |
| 20260505113321 | 41 | 123 | 1.0 | 5.0 | 0.00 | 0.00 | 0.00 | 86 | 1009.2 |
| 20260505112817 | 41 | 145 | 3.0 | 6.0 | 0.00 | 0.00 | 0.00 | 86 | 1009.0 |
| 20260505112315 | 41 | 321 | 0.0 | 4.0 | 0.00 | 0.00 | 0.00 | 86 | 1009.1 |
| 20260505111810 | 42 | 161 | 0.0 | 3.0 | 0.00 | 0.00 | 0.00 | 86 | 1008.7 |
| 20260505111306 | 42 | 165 | 2.0 | 4.0 | 0.00 | 0.00 | 0.00 | 86 | 1009.2 |
| 20260505110802 | 42 | 148 | 4.0 | 5.0 | 0.00 | 0.00 | 0.00 | 86 | 1009.2 |
| 20260505110300 | 41 | 115 | 3.0 | 5.0 | 0.00 | 0.00 | 0.00 | 88 | 1009.1 |
| 20260505101734 | 41 | 134 | 4.0 | 5.0 | 0.00 | 0.00 | 0.00 | 92 | 1009.0 |
| 20260505101230 | 41 | 142 | 4.0 | 6.0 | 0.00 | 0.00 | 0.00 | 91 | 1009.1 |
| 20260505100726 | 41 | 145 | 3.0 | 3.0 | 0.00 | 0.00 | 0.00 | 91 | 1009.0 |
| 20260505100223 | 41 | 176 | 3.0 | 3.0 | 0.00 | 0.00 | 0.00 | 91 | 1009.0 |
| 20260505095724 | 41 | 131 | 2.0 | 3.0 | 0.00 | 0.00 | 0.00 | 90 | 1009.0 |
| 20260505095222 | 41 | 128 | 3.0 | 3.0 | 0.00 | 0.00 | 0.00 | 90 | 1009.0 |
| 20260505094717 | 42 | 162 | 2.0 | 3.0 | 0.00 | 0.00 | 0.00 | 90 | 1009.0 |
| 20260505094214 | 42 | 152 | 4.0 | 4.0 | 0.00 | 0.00 | 0.00 | 89 | 1008.7 |
| 20260505093710 | 42 | 131 | 2.0 | 5.0 | 0.00 | 0.00 | 0.00 | 88 | 1008.9 |
| 20260505093208 | 42 | 157 | 3.0 | 4.0 | 0.00 | 0.00 | 0.00 | 88 | 1008.6 |
| 20260505092704 | 42 | 141 | 3.0 | 4.0 | 0.00 | 0.00 | 0.00 | 87 | 1008.9 |
| 20260505092203 | 43 | 27 | 1.0 | 2.0 | 0.00 | 0.00 | 0.00 | 86 | 1008.9 |
| 20260505091700 | 43 | 28 | 1.0 | 3.0 | 0.00 | 0.00 | 0.00 | 86 | 1008.9 |
| 20260505091158 | 43 | 85 | 3.0 | 4.0 | 0.00 | 0.00 | 0.00 | 86 | 1008.6 |
| 20260505090655 | 43 | 54 | 3.0 | 3.0 | 0.00 | 0.00 | 0.00 | 86 | 1008.6 |
| 20260505090154 | 43 | 22 | 3.0 | 5.0 | 0.00 | 0.00 | 0.00 | 85 | 1008.7 |
| 20260505085650 | 43 | 323 | 1.0 | 6.0 | 0.00 | 0.00 | 0.00 | 86 | 1008.9 |
| 20260505085149 | 44 | 23 | 5.0 | 5.0 | 0.00 | 0.00 | 0.00 | 85 | 1009.1 |
| 20260505084646 | 44 | 11 | 4.0 | 5.0 | 0.00 | 0.00 | 0.00 | 85 | 1009.4 |
| 20260505084144 | 44 | 29 | 4.0 | 5.0 | 0.00 | 0.00 | 0.00 | 85 | 1009.4 |
| 20260505083641 | 44 | 12 | 4.0 | 5.0 | 0.00 | 0.00 | 0.00 | 85 | 1009.5 |
| 20260505083138 | 44 | 31 | 2.0 | 4.0 | 0.00 | 0.00 | 0.00 | 84 | 1009.4 |
| 20260505082634 | 44 | 36 | 4.0 | 4.0 | 0.00 | 0.00 | 0.00 | 83 | 1009.4 |
| 20260505082131 | 44 | 40 | 3.0 | 5.0 | 0.00 | 0.00 | 0.00 | 83 | 1009.7 |
| 20260505081626 | 44 | 61 | 5.0 | 5.0 | 0.00 | 0.00 | 0.00 | 82 | 1009.4 |
| 20260505081125 | 44 | 39 | 3.0 | 5.0 | 0.00 | 0.00 | 0.00 | 83 | 1009.5 |
| 20260505080621 | 44 | 18 | 5.0 | 7.0 | 0.00 | 0.00 | 0.00 | 83 | 1009.6 |
| 20260505080117 | 45 | 37 | 2.0 | 4.0 | 0.00 | 0.00 | 0.00 | 85 | 1010.0 |
| 20260505075613 | 45 | 11 | 3.0 | 5.0 | 0.00 | 0.00 | 0.00 | 84 | 1009.6 |
| 20260505075110 | 45 | 6 | 5.0 | 6.0 | 0.00 | 0.00 | 0.00 | 84 | 1009.7 |
| 20260505074607 | 45 | 23 | 3.0 | 6.0 | 0.00 | 0.00 | 0.00 | 83 | 1009.6 |
| 20260505074104 | 45 | 354 | 7.0 | 10.0 | 0.00 | 0.00 | 0.00 | 84 | 1009.6 |
| 20260505073602 | 45 | 21 | 5.0 | 6.0 | 0.00 | 0.00 | 0.00 | 86 | 1009.7 |
| 20260505073100 | 45 | 9 | 3.0 | 4.0 | 0.00 | 0.00 | 0.00 | 86 | 1009.7 |
| 20260505072555 | 45 | 19 | 5.0 | 7.0 | 0.00 | 0.00 | 0.00 | 86 | 1009.8 |
| 20260505072052 | 45 | 16 | 5.0 | 6.0 | 0.00 | 0.00 | 0.00 | 86 | 1009.7 |
| 20260505071547 | 45 | 348 | 6.0 | 9.0 | 0.00 | 0.00 | 0.00 | 86 | 1009.7 |
| 20260505071046 | 45 | 2 | 5.0 | 6.0 | 0.00 | 0.00 | 0.00 | 87 | 1009.7 |
| 20260505070543 | 45 | 355 | 3.0 | 5.0 | 0.00 | 0.00 | 0.00 | 87 | 1009.8 |
| 20260505070039 | 45 | 17 | 4.0 | 7.0 | 0.00 | 0.00 | 0.00 | 86 | 1009.8 |
| 20260505065535 | 44 | 12 | 4.0 | 6.0 | 0.00 | 0.00 | 0.00 | 87 | 1010.0 |
| 20260505065032 | 45 | 26 | 4.0 | 5.0 | 0.00 | 0.00 | 0.00 | 88 | 1009.7 |
| 20260505064528 | 45 | 40 | 3.0 | 4.0 | 0.00 | 0.00 | 0.00 | 88 | 1009.8 |
| 20260505064027 | 45 | 9 | 5.0 | 5.0 | 0.00 | 0.00 | 0.00 | 88 | 1010.0 |
| 20260505063524 | 45 | 352 | 2.0 | 6.0 | 0.00 | 0.00 | 0.00 | 87 | 1009.8 |
| 20260505063019 | 45 | 17 | 4.0 | 7.0 | 0.00 | 0.00 | 0.00 | 87 | 1009.8 |
| 20260505062517 | 45 | 3 | 5.0 | 6.0 | 0.00 | 0.00 | 0.00 | 87 | 1010.0 |
| 20260505062014 | 45 | 5 | 4.0 | 9.0 | 0.02 | 0.00 | 0.00 | 86 | 1009.8 |
| 20260505061511 | 45 | 34 | 4.0 | 7.0 | 0.02 | 0.00 | 0.00 | 86 | 1009.8 |
| 20260505061009 | 45 | 4 | 4.0 | 9.0 | 0.00 | 0.00 | 0.00 | 84 | 1010.2 |
| 20260505060506 | 46 | 358 | 4.0 | 5.0 | 0.02 | 0.00 | 0.00 | 83 | 1010.0 |
| 20260505060002 | 46 | 22 | 2.0 | 5.0 | 0.02 | 0.03 | 0.03 | 82 | 1010.1 |
| 20260505055458 | 46 | 313 | 2.0 | 7.0 | 0.00 | 0.02 | 0.02 | 82 | 1010.5 |
| 20260505054955 | 47 | 331 | 3.0 | 8.0 | 0.00 | 0.02 | 0.02 | 81 | 1010.6 |
| 20260505054452 | 46 | 354 | 3.0 | 8.0 | 0.02 | 0.02 | 0.02 | 79 | 1010.6 |
| 20260505053950 | 46 | 316 | 2.0 | 5.0 | 0.02 | 0.02 | 0.02 | 77 | 1010.3 |
| 20260505053447 | 47 | 10 | 4.0 | 7.0 | 0.00 | 0.02 | 0.02 | 77 | 1010.1 |
| 20260505052944 | 47 | 14 | 5.0 | 6.0 | 0.00 | 0.02 | 0.02 | 75 | 1010.2 |
| 20260505052441 | 47 | 11 | 6.0 | 7.0 | 0.00 | 0.02 | 0.02 | 73 | 1010.1 |
| 20260505051938 | 47 | 14 | 5.0 | 6.0 | 0.00 | 0.02 | 0.02 | 74 | 1010.2 |
| 20260505051435 | 47 | 342 | 3.0 | 3.0 | 0.00 | 0.02 | 0.02 | 74 | 1010.1 |
| 20260505050933 | 47 | 2 | 3.0 | 5.0 | 0.00 | 0.02 | 0.02 | 73 | 1010.2 |
| 20260505050431 | 47 | 11 | 6.0 | 10.0 | 0.00 | 0.02 | 0.02 | 72 | 1010.1 |
| 20260505041359 | 47 | 51 | 3.0 | 5.0 | 0.00 | 0.02 | 0.02 | 76 | 1009.5 |
| 20260505040856 | 47 | 19 | 4.0 | 4.0 | 0.00 | 0.02 | 0.02 | 75 | 1009.1 |
| 20260505040353 | 47 | 69 | 4.0 | 7.0 | 0.00 | 0.02 | 0.02 | 74 | 1009.2 |
| 20260505035850 | 48 | 15 | 6.0 | 7.0 | 0.00 | 0.02 | 0.02 | 73 | 1009.2 |
| 20260505035345 | 48 | 58 | 6.0 | 9.0 | 0.00 | 0.02 | 0.02 | 72 | 1009.4 |
| 20260505034843 | 48 | 339 | 4.0 | 9.0 | 0.00 | 0.02 | 0.02 | 72 | 1009.2 |
| 20260505034339 | 48 | 335 | 5.0 | 10.0 | 0.00 | 0.02 | 0.02 | 72 | 1009.4 |
| 20260505033837 | 48 | 357 | 3.0 | 9.0 | 0.00 | 0.02 | 0.02 | 72 | 1009.4 |
| 20260505033333 | 48 | 4 | 4.0 | 12.0 | 0.00 | 0.02 | 0.02 | 71 | 1009.4 |
| 20260505032832 | 48 | 342 | 4.0 | 7.0 | 0.00 | 0.02 | 0.02 | 72 | 1009.4 |
| 20260505032328 | 48 | 328 | 2.0 | 9.0 | 0.00 | 0.02 | 0.02 | 72 | 1009.1 |
| 20260505031825 | 48 | 15 | 4.0 | 7.0 | 0.00 | 0.02 | 0.02 | 73 | 1008.9 |
| 20260505031321 | 48 | 0 | 7.0 | 11.0 | 0.00 | 0.02 | 0.02 | 73 | 1008.9 |
| 20260505030819 | 48 | 14 | 7.0 | 12.0 | 0.00 | 0.02 | 0.02 | 74 | 1008.6 |
| 20260505030315 | 48 | 0 | 9.0 | 10.0 | 0.00 | 0.02 | 0.02 | 74 | 1008.9 |
| 20260505025810 | 48 | 8 | 5.0 | 12.0 | 0.00 | 0.02 | 0.02 | 74 | 1009.0 |
| 20260505025308 | 48 | 332 | 4.0 | 9.0 | 0.00 | 0.02 | 0.02 | 74 | 1008.6 |
| 20260505024807 | 48 | 11 | 6.0 | 12.0 | 0.00 | 0.02 | 0.02 | 74 | 1009.0 |
| 20260505024304 | 48 | 316 | 5.0 | 8.0 | 0.00 | 0.02 | 0.02 | 73 | 1009.0 |
| 20260505023801 | 48 | 358 | 8.0 | 15.0 | 0.00 | 0.02 | 0.02 | 72 | 1009.1 |
| 20260505023258 | 48 | 0 | 10.0 | 15.0 | 0.00 | 0.02 | 0.02 | 72 | 1008.7 |
| 20260505022755 | 48 | 348 | 7.0 | 11.0 | 0.00 | 0.02 | 0.02 | 73 | 1008.7 |
| 20260505022252 | 48 | 323 | 9.0 | 9.0 | 0.00 | 0.02 | 0.02 | 73 | 1008.9 |
| 20260505021749 | 48 | 359 | 6.0 | 17.0 | 0.00 | 0.02 | 0.02 | 73 | 1008.9 |
| 20260505021246 | 48 | 358 | 6.0 | 11.0 | 0.00 | 0.02 | 0.02 | 74 | 1008.6 |
| 20260505020741 | 48 | 350 | 7.0 | 11.0 | 0.00 | 0.02 | 0.02 | 72 | 1008.9 |
| 20260505020237 | 49 | 322 | 6.0 | 12.0 | 0.00 | 0.02 | 0.02 | 72 | 1009.1 |
| 20260505015734 | 49 | 14 | 12.0 | 18.0 | 0.00 | 0.02 | 0.02 | 71 | 1009.4 |
| 20260505015231 | 50 | 11 | 7.0 | 12.0 | 0.02 | 0.02 | 0.02 | 68 | 1008.9 |
| 20260505014728 | 50 | 4 | 6.0 | 9.0 | 0.07 | 0.02 | 0.02 | 67 | 1008.7 |
| 20260505014226 | 50 | 25 | 7.0 | 8.0 | 0.07 | 0.02 | 0.02 | 68 | 1008.7 |
| 20260505013722 | 50 | 359 | 6.0 | 8.0 | 0.02 | 0.01 | 0.01 | 66 | 1009.0 |
| 20260505013219 | 51 | 345 | 4.0 | 7.0 | 0.02 | 0.00 | 0.00 | 69 | 1008.9 |
| 20260505012718 | 51 | 350 | 7.0 | 8.0 | 0.02 | 0.00 | 0.00 | 67 | 1008.7 |
| 20260505012214 | 51 | 352 | 4.0 | 10.0 | 0.00 | 0.00 | 0.00 | 62 | 1008.9 |
| 20260505011710 | 52 | 6 | 12.0 | 14.0 | 0.00 | 0.00 | 0.00 | 59 | 1008.9 |
| 20260505011208 | 54 | 9 | 17.0 | 19.0 | 0.00 | 0.00 | 0.00 | 55 | 1008.5 |
| 20260505010703 | 56 | 297 | 4.0 | 5.0 | 0.00 | 0.00 | 0.00 | 43 | 1007.9 |
| 20260505010200 | 56 | 358 | 8.0 | 12.0 | 0.00 | 0.00 | 0.00 | 44 | 1007.9 |
| 20260505005655 | 56 | 8 | 2.0 | 5.0 | 0.00 | 0.00 | 0.00 | 44 | 1008.0 |
| 20260505005153 | 57 | 359 | 6.0 | 14.0 | 0.00 | 0.00 | 0.00 | 42 | 1008.0 |
| 20260505004650 | 58 | 349 | 5.0 | 14.0 | 0.00 | 0.00 | 0.00 | 38 | 1007.6 |
| 20260505004146 | 58 | 334 | 8.0 | 11.0 | 0.00 | 0.00 | 0.00 | 37 | 1007.5 |
| 20260505003644 | 58 | 359 | 7.0 | 13.0 | 0.00 | 0.00 | 0.00 | 36 | 1007.2 |
| 20260505003141 | 59 | 350 | 8.0 | 13.0 | 0.00 | 0.00 | 0.00 | 36 | 1007.0 |
| 20260505002637 | 59 | 5 | 9.0 | 12.0 | 0.00 | 0.00 | 0.00 | 36 | 1007.3 |
| 20260505002136 | 59 | 3 | 8.0 | 12.0 | 0.00 | 0.00 | 0.00 | 36 | 1006.7 |
| 20260505001632 | 59 | 18 | 13.0 | 20.0 | 0.00 | 0.00 | 0.00 | 36 | 1006.7 |
| 20260505001130 | 59 | 357 | 11.0 | 17.0 | 0.00 | 0.00 | 0.00 | 36 | 1006.5 |
| 20260505000627 | 60 | 7 | 15.0 | 16.0 | 0.00 | 0.00 | 0.00 | 36 | 1006.7 |
| 20260505000125 | 61 | 26 | 9.0 | 17.0 | 0.00 | 0.00 | 0.00 | 34 | 1006.5 |
| 20260504235621 | 61 | 8 | 7.0 | 10.0 | 0.00 | 0.00 | 0.00 | 34 | 1006.5 |
| 20260504235117 | 62 | 357 | 7.0 | 15.0 | 0.00 | 0.00 | 0.00 | 34 | 1006.5 |
| 20260504234615 | 62 | 1 | 6.0 | 10.0 | 0.00 | 0.00 | 0.00 | 34 | 1006.1 |
| 20260504234112 | 63 | 22 | 5.0 | 5.0 | 0.00 | 0.00 | 0.00 | 33 | 1006.2 |
| 20260504233607 | 63 | 83 | 5.0 | 6.0 | 0.00 | 0.00 | 0.00 | 33 | 1006.3 |
| 20260504233104 | 62 | 354 | 3.0 | 4.0 | 0.00 | 0.00 | 0.00 | 35 | 1006.4 |
| 20260504232601 | 62 | 143 | 0.0 | 2.0 | 0.00 | 0.00 | 0.00 | 35 | 1007.0 |
| 20260504232059 | 62 | 56 | 0.0 | 2.0 | 0.00 | 0.00 | 0.00 | 34 | 1006.7 |
| 20260504231555 | 63 | 323 | 2.0 | 2.0 | 0.00 | 0.00 | 0.00 | 34 | 1006.3 |
| 20260504231051 | 63 | 196 | 1.0 | 4.0 | 0.00 | 0.00 | 0.00 | 34 | 1006.4 |
| 20260504230547 | 64 | 302 | 1.0 | 3.0 | 0.00 | 0.00 | 0.00 | 34 | 1006.4 |
| 20260504230046 | 64 | 189 | 3.0 | 6.0 | 0.00 | 0.00 | 0.00 | 34 | 1006.5 |
| 20260504225543 | 63 | 237 | 0.0 | 3.0 | 0.00 | 0.00 | 0.00 | 36 | 1006.4 |
| 20260504225040 | 62 | 176 | 5.0 | 5.0 | 0.00 | 0.00 | 0.00 | 37 | 1006.7 |
| 20260504224537 | 60 | 177 | 4.0 | 5.0 | 0.00 | 0.00 | 0.00 | 39 | 1006.7 |
| 20260504224034 | 59 | 171 | 4.0 | 6.0 | 0.00 | 0.00 | 0.00 | 39 | 1006.8 |
| 20260504223531 | 59 | 186 | 9.0 | 12.0 | 0.00 | 0.00 | 0.00 | 41 | 1006.9 |
| 20260504223026 | 60 | 202 | 2.0 | 4.0 | 0.00 | 0.00 | 0.00 | 44 | 1007.0 |
| 20260504222523 | 60 | 194 | 5.0 | 6.0 | 0.00 | 0.00 | 0.00 | 40 | 1007.2 |
| 20260504222021 | 59 | 53 | 1.0 | 5.0 | 0.00 | 0.00 | 0.00 | 47 | 1006.9 |
| 20260504221518 | 57 | 173 | 4.0 | 4.0 | 0.00 | 0.00 | 0.00 | 43 | 1007.0 |
| 20260504221015 | 58 | 278 | 4.0 | 9.0 | 0.00 | 0.00 | 0.00 | 49 | 1007.5 |
| 20260504220511 | 60 | 318 | 5.0 | 9.0 | 0.00 | 0.00 | 0.00 | 36 | 1007.5 |
| 20260504220008 | 61 | 314 | 5.0 | 7.0 | 0.00 | 0.00 | 0.00 | 34 | 1007.3 |
| 20260504215505 | 61 | 308 | 6.0 | 14.0 | 0.00 | 0.00 | 0.00 | 31 | 1006.9 |
| 20260504215003 | 63 | 3 | 13.0 | 20.0 | 0.00 | 0.00 | 0.00 | 28 | 1006.3 |
| 20260504214458 | 64 | 307 | 5.0 | 15.0 | 0.00 | 0.00 | 0.00 | 26 | 1006.2 |
| 20260504213955 | 65 | 304 | 6.0 | 11.0 | 0.00 | 0.00 | 0.00 | 25 | 1005.8 |
| 20260504213450 | 66 | 332 | 5.0 | 6.0 | 0.00 | 0.00 | 0.00 | 24 | 1005.8 |
| 20260504212948 | 66 | 341 | 2.0 | 3.0 | 0.00 | 0.00 | 0.00 | 23 | 1005.9 |
| 20260504212444 | 66 | 357 | 3.0 | 4.0 | 0.00 | 0.00 | 0.00 | 23 | 1005.8 |
| 20260504211942 | 66 | 269 | 0.0 | 3.0 | 0.00 | 0.00 | 0.00 | 22 | 1005.9 |
| 20260504211438 | 67 | 352 | 0.0 | 2.0 | 0.00 | 0.00 | 0.00 | 22 | 1005.8 |
| 20260504210936 | 68 | 296 | 2.0 | 4.0 | 0.00 | 0.00 | 0.00 | 22 | 1005.7 |
| 20260504210432 | 68 | 252 | 2.0 | 6.0 | 0.00 | 0.00 | 0.00 | 23 | 1005.9 |
| 20260504205929 | 67 | 188 | 2.0 | 6.0 | 0.00 | 0.00 | 0.00 | 23 | 1005.8 |
| 20260504205427 | 68 | 189 | 3.0 | 5.0 | 0.00 | 0.00 | 0.00 | 22 | 1005.9 |
| 20260504204925 | 68 | 157 | 3.0 | 6.0 | 0.00 | 0.00 | 0.00 | 22 | 1006.1 |
| 20260504204423 | 70 | 15 | 1.0 | 2.0 | 0.00 | 0.00 | 0.00 | 20 | 1005.9 |
| 20260504203922 | 70 | 220 | 2.0 | 7.0 | 0.00 | 0.00 | 0.00 | 21 | 1006.4 |
| 20260504203419 | 69 | 304 | 2.0 | 6.0 | 0.00 | 0.00 | 0.00 | 22 | 1006.5 |
| 20260504202915 | 69 | 311 | 3.0 | 5.0 | 0.00 | 0.00 | 0.00 | 22 | 1006.4 |
| 20260504202412 | 69 | 166 | 2.0 | 4.0 | 0.00 | 0.00 | 0.00 | 21 | 1006.4 |
| 20260504201909 | 67 | 346 | 0.0 | 4.0 | 0.00 | 0.00 | 0.00 | 23 | 1006.5 |
| 20260504201406 | 66 | 306 | 5.0 | 9.0 | 0.00 | 0.00 | 0.00 | 21 | 1006.5 |
| 20260504200903 | 66 | 315 | 3.0 | 6.0 | 0.00 | 0.00 | 0.00 | 22 | 1006.3 |
| 20260504200400 | 66 | 286 | 8.0 | 11.0 | 0.00 | 0.00 | 0.00 | 22 | 1006.5 |
| 20260504195856 | 67 | 317 | 8.0 | 11.0 | 0.00 | 0.00 | 0.00 | 21 | 1006.5 |
| 20260504195352 | 68 | 168 | 7.0 | 10.0 | 0.00 | 0.00 | 0.00 | 20 | 1006.7 |
| 20260504194849 | 68 | 343 | 4.0 | 4.0 | 0.00 | 0.00 | 0.00 | 18 | 1006.5 |
| 20260504194345 | 70 | 204 | 6.0 | 10.0 | 0.00 | 0.00 | 0.00 | 18 | 1006.5 |
| 20260504193841 | 69 | 10 | 2.0 | 14.0 | 0.00 | 0.00 | 0.00 | 20 | 1006.4 |
| 20260504193338 | 71 | 175 | 4.0 | 5.0 | 0.00 | 0.00 | 0.00 | 19 | 1006.4 |
| 20260504192837 | 69 | 184 | 7.0 | 10.0 | 0.00 | 0.00 | 0.00 | 19 | 1006.7 |
| 20260504192335 | 72 | 170 | 4.0 | 7.0 | 0.00 | 0.00 | 0.00 | 19 | 1006.8 |
| 20260504191833 | 72 | 232 | 2.0 | 5.0 | 0.00 | 0.00 | 0.00 | 19 | 1007.0 |
| 20260504191330 | 72 | 166 | 6.0 | 6.0 | 0.00 | 0.00 | 0.00 | 18 | 1007.2 |
| 20260504190825 | 70 | 200 | 4.0 | 9.0 | 0.00 | 0.00 | 0.00 | 19 | 1006.9 |
| 20260504190322 | 70 | 204 | 4.0 | 12.0 | 0.00 | 0.00 | 0.00 | 19 | 1007.2 |
| 20260504185818 | 67 | 119 | 1.0 | 3.0 | 0.00 | 0.00 | 0.00 | 21 | 1007.3 |
| 20260504185315 | 67 | 359 | 5.0 | 8.0 | 0.00 | 0.00 | 0.00 | 19 | 1007.2 |
| 20260504184811 | 69 | 290 | 2.0 | 6.0 | 0.00 | 0.00 | 0.00 | 20 | 1007.3 |
| 20260504184307 | 69 | 252 | 3.0 | 4.0 | 0.00 | 0.00 | 0.00 | 19 | 1007.3 |
| 20260504183803 | 69 | 289 | 3.0 | 6.0 | 0.00 | 0.00 | 0.00 | 18 | 1007.5 |
| 20260504183300 | 68 | 136 | 1.0 | 6.0 | 0.00 | 0.00 | 0.00 | 19 | 1007.6 |
| 20260504182759 | 69 | 241 | 4.0 | 8.0 | 0.00 | 0.00 | 0.00 | 20 | 1007.6 |
| 20260504182255 | 69 | 252 | 2.0 | 6.0 | 0.00 | 0.00 | 0.00 | 20 | 1007.9 |
| 20260504181753 | 71 | 303 | 2.0 | 4.0 | 0.00 | 0.00 | 0.00 | 20 | 1007.9 |
| 20260504181250 | 70 | 193 | 4.0 | 4.0 | 0.00 | 0.00 | 0.00 | 20 | 1007.9 |
| 20260504180749 | 67 | 86 | 3.0 | 8.0 | 0.00 | 0.00 | 0.00 | 19 | 1008.1 |
| 20260504180247 | 66 | 337 | 6.0 | 8.0 | 0.00 | 0.00 | 0.00 | 21 | 1008.1 |
| 20260504175745 | 67 | 342 | 2.0 | 6.0 | 0.00 | 0.00 | 0.00 | 22 | 1008.0 |
| 20260504175241 | 67 | 245 | 3.0 | 17.0 | 0.00 | 0.00 | 0.00 | 21 | 1008.3 |
| 20260504174739 | 67 | 313 | 5.0 | 6.0 | 0.00 | 0.00 | 0.00 | 22 | 1007.9 |
| 20260504174237 | 67 | 212 | 1.0 | 6.0 | 0.00 | 0.00 | 0.00 | 22 | 1008.4 |
| 20260504173733 | 68 | 125 | 3.0 | 4.0 | 0.00 | 0.00 | 0.00 | 23 | 1008.4 |
| 20260504173230 | 68 | 293 | 2.0 | 6.0 | 0.00 | 0.00 | 0.00 | 21 | 1008.4 |
| 20260504172727 | 71 | 200 | 6.0 | 7.0 | 0.00 | 0.00 | 0.00 | 20 | 1008.5 |
| 20260504172223 | 69 | 224 | 7.0 | 9.0 | 0.00 | 0.00 | 0.00 | 22 | 1008.6 |
| 20260504171720 | 66 | 267 | 2.0 | 7.0 | 0.00 | 0.00 | 0.00 | 25 | 1008.7 |
| 20260504171217 | 68 | 345 | 5.0 | 9.0 | 0.00 | 0.00 | 0.00 | 23 | 1008.6 |
| 20260504170713 | 69 | 346 | 6.0 | 6.0 | 0.00 | 0.00 | 0.00 | 22 | 1008.7 |
| 20260504170211 | 69 | 181 | 1.0 | 6.0 | 0.00 | 0.00 | 0.00 | 24 | 1008.6 |
| 20260504160129 | 62 | 319 | 1.0 | 7.0 | 0.00 | 0.00 | 0.00 | 32 | 1009.5 |
| 20260504151057 | 60 | 267 | 4.0 | 9.0 | 0.00 | 0.00 | 0.00 | 32 | 1009.5 |
| 20260504150554 | 60 | 191 | 3.0 | 8.0 | 0.00 | 0.00 | 0.00 | 31 | 1009.4 |
| 20260504141020 | 60 | 329 | 3.0 | 8.0 | 0.00 | 0.00 | 0.00 | 32 | 1009.0 |
| 20260504140516 | 58 | 262 | 3.0 | 7.0 | 0.00 | 0.00 | 0.00 | 33 | 1009.1 |
| 20260504130441 | 51 | 7 | 4.0 | 5.0 | 0.00 | 0.00 | 0.00 | 40 | 1009.1 |